This demonstration page uses our WeatherBlox Daily Observations layout. Learn more.

Left ArrowRight Arrow

40.92945, -100.16068

Hourly Observations for August 9, 2020

Temp ( °F °C ) Dew Point ( °F °C ) Humidity (%) Winds ( mph kmh ) Pressure ( in mb ) Visibility ( mi km ) Precip ( " mm )
12:15 am 00:15 Clear with Nearby Thunderstorms 75 24.1 62 16.5 63 63 N 15 24 29.86 1011 10 16 N/A
12:35 am 00:35 Clear 73 23 62 16.4 66 66 N 8 13 29.88 1012 10 16 N/A
12:55 am 00:55 Clear 73 22.6 61 16 66 66 N 7 11 29.86 1011 10 16 N/A
1:15 am 01:15 Clear 72 22 61 16.1 69 69 ENE 9 15 29.86 1011 10 16 N/A
1:35 am 01:35 Clear 72 22 61 16.1 69 69 E 8 13 29.84 1010 10 16 N/A
1:55 am 01:55 Clear 72 22 61 16 69 69 SE 8 13 29.83 1010 10 16 N/A
2:15 am 02:15 Clear 72 22.3 61 16.1 68 68 SE 8 13 29.81 1010 10 16 N/A
2:35 am 02:35 Clear 71 21.8 62 16.7 73 73 SE 6 9 29.82 1010 10 16 N/A
2:55 am 02:55 Clear 70 21.3 63 17.2 78 78 SE 5 7 29.81 1010 10 16 N/A
3:15 am 03:15 Clear 70 21.1 64 17.5 80 80 N N/A 29.81 1010 10 16 N/A
3:35 am 03:35 Clear 68 20.2 64 17.7 86 86 N N/A 29.81 1010 10 16 N/A
3:55 am 03:55 Clear 68 20.2 65 18.1 88 88 ESE 3 6 29.81 1010 10 16 N/A
4:15 am 04:15 Clear 68 20 65 18.1 89 89 N 5 7 29.83 1010 10 16 N/A
4:35 am 04:35 Clear 65 18.3 63 17.2 93 93 N 6 9 29.85 1011 10 16 N/A
4:55 am 04:55 Clear 64 17.6 62 16.6 94 94 N N/A 29.84 1011 10 16 N/A
5:15 am 05:15 Clear 63 17.1 61 16.3 95 95 N N/A 29.85 1011 10 16 N/A
5:35 am 05:35 Clear 63 17.3 62 16.5 95 95 N 5 7 29.86 1011 10 16 N/A
5:55 am 05:55 Clear 64 17.5 62 16.7 95 95 NNE 5 7 29.84 1011 10 16 N/A
6:15 am 06:15 Clear 64 17.5 62 16.6 95 95 NNE 7 11 29.85 1011 10 16 N/A
6:35 am 06:35 Clear 64 17.8 62 16.5 92 92 NE 3 6 29.86 1011 10 16 N/A
6:55 am 06:55 Sunny 63 17.1 61 16.2 94 94 NE 5 7 29.86 1011 10 16 N/A
7:15 am 07:15 Sunny 64 17.5 61 16.3 93 93 NE 5 7 29.86 1011 10 16 N/A
7:35 am 07:35 Mostly Cloudy 66 18.9 65 18.1 95 95 N N/A 29.87 1012 7 11 N/A
7:55 am 07:55 Cloudy 67 19.2 64 17.6 91 91 NE 7 11 29.89 1012 10 16 N/A
8:15 am 08:15 Cloudy 68 20.1 64 17.7 86 86 E 8 13 29.85 1011 10 16 N/A
8:35 am 08:35 Cloudy 69 20.7 66 18.7 88 88 E 5 7 29.86 1011 10 16 N/A
8:55 am 08:55 Cloudy 71 21.5 67 19.5 88 88 N N/A 29.86 1011 10 16 N/A
9:15 am 09:15 Cloudy 72 22.2 68 20.2 89 89 SSE 3 6 29.84 1011 10 16 N/A
9:35 am 09:35 Cloudy 73 23 69 20.7 87 87 E 6 9 29.84 1010 7 11 N/A
9:55 am 09:55 Cloudy 75 23.8 70 21 84 84 ESE 6 9 29.83 1010 7 11 N/A
10:15 am 10:15 Partly Cloudy 76 24.3 70 21.2 83 83 SSE 6 9 29.81 1009 10 16 N/A
10:35 am 10:35 Partly Cloudy 77 25.1 71 21.7 81 81 S 5 7 29.80 1009 10 16 N/A
10:55 am 10:55 Sunny 79 26 71 21.9 78 78 N N/A 29.79 1009 10 16 N/A
11:15 am 11:15 Sunny 81 27.2 72 22 73 73 SE 6 9 29.77 1008 10 16 N/A
11:35 am 11:35 Sunny 83 28.2 71 21.9 69 69 ESE 5 7 29.75 1008 10 16 N/A
11:55 am 11:55 Sunny 84 29 72 22.4 68 68 SE 7 11 29.74 1007 10 16 N/A
12:15 pm 12:15 Sunny 86 30 73 22.5 64 64 SE 9 15 29.73 1007 10 16 N/A
12:35 pm 12:35 Sunny 88 31.1 71 21.6 57 57 S 9 15 29.72 1006 10 16 N/A
12:55 pm 12:55 Sunny 89 31.8 71 21.9 56 56 SSE 8 13 29.72 1006 10 16 N/A
1:15 pm 13:15 Sunny 89 31.8 71 21.9 56 56 SSE 9 15 29.72 1006 10 16 N/A
1:35 pm 13:35 Sunny 91 32.5 71 21.9 54 54 SSE 9 15 29.70 1006 10 16 N/A
1:55 pm 13:55 Sunny 91 32.7 73 22.8 56 56 SSE 10 17 29.70 1006 10 16 N/A
2:15 pm 14:15 Sunny 92 33.5 71 21.6 50 50 SSE 10 17 29.68 1005 10 16 N/A
2:35 pm 14:35 Sunny 93 34 70 20.9 46 46 S 12 19 29.67 1005 10 16 N/A
2:55 pm 14:55 Sunny 93 33.7 72 22 50 50 S 10 17 29.67 1005 10 16 N/A
3:15 pm 15:15 Sunny 93 33.9 72 22.1 50 50 S 9 15 29.66 1004 10 16 N/A
3:35 pm 15:35 Sunny 93 33.7 72 22.2 51 51 S 10 17 29.66 1004 10 16 N/A
3:55 pm 15:55 Sunny 92 33.5 74 23.2 55 55 SSE 6 9 29.66 1004 10 16 N/A
4:15 pm 16:15 Sunny 94 34.4 73 22.8 51 51 S 7 11 29.66 1004 10 16 N/A
4:35 pm 16:35 Sunny 95 34.8 70 21.3 45 45 SSW 6 9 29.65 1004 10 16 N/A
4:55 pm 16:55 Sunny 96 35.4 70 20.9 43 43 SSW 6 9 29.65 1004 7 11 N/A
5:15 pm 17:15 Hazy 94 34.7 69 20.8 44 44 SSE 7 11 29.64 1004 5 8 N/A
5:35 pm 17:35 Hazy 95 35.2 69 20.3 42 42 S 8 13 29.64 1004 2 3 N/A
5:55 pm 17:55 Sunny 95 35.2 68 19.8 40 40 S 8 13 29.64 1004 7 11 N/A
6:15 pm 18:15 Sunny 95 35 70 21.2 45 45 SSE 8 13 29.64 1004 7 11 N/A
6:35 pm 18:35 Sunny 94 34.6 70 21.3 46 46 S 6 9 29.64 1004 7 11 N/A
6:55 pm 18:55 Sunny 93 34.1 71 21.5 48 48 SSE 8 13 29.66 1004 7 11 N/A
7:15 pm 19:15 Sunny 93 34 71 21.6 48 48 SE 7 11 29.66 1004 7 11 N/A
7:35 pm 19:35 Sunny 92 33.3 72 22.1 52 52 SE 7 11 29.66 1005 7 11 N/A
7:55 pm 19:55 Hazy 91 32.6 71 21.6 52 52 SE 7 11 29.67 1005 5 8 N/A
8:15 pm 20:15 Sunny 89 31.5 73 22.6 59 59 ESE 5 7 29.69 1005 10 16 N/A
8:35 pm 20:35 Sunny 86 30.1 74 23.6 68 68 ESE 7 11 29.70 1006 7 11 N/A
8:55 pm 20:55 Clear 86 30 72 22.4 64 64 SE 7 11 29.70 1006 7 11 N/A
9:15 pm 21:15 Clear 84 28.7 73 22.7 70 70 ESE 6 9 29.72 1006 7 11 N/A
9:35 pm 21:35 Clear 82 28 73 22.6 73 73 E 6 9 29.74 1007 10 16 N/A
9:55 pm 21:55 Clear 78 25.8 73 23 85 85 ENE 5 7 29.75 1008 7 11 N/A
10:15 pm 22:15 Clear 78 25.5 73 22.8 85 85 ENE 5 7 29.76 1008 10 16 N/A
10:35 pm 22:35 Clear 77 25.2 73 22.5 85 85 ENE 7 11 29.76 1008 10 16 N/A
10:55 pm 22:55 Clear 76 24.3 72 22.2 88 88 ENE 5 7 29.77 1008 10 16 N/A
11:15 pm 23:15 Clear 75 24 71 21.7 87 87 ENE 5 7 29.76 1008 10 16 N/A
11:35 pm 23:35 Clear 74 23.3 71 21.5 90 90 E 3 6 29.77 1008 10 16 N/A
11:55 pm 23:55 Clear 74 23.4 71 21.4 89 89 N N/A 29.77 1008 10 16 N/A

Powered by AerisWeather